Location: Unspecified
(43.4680°N, 87.1740°E)
Time: 21:23:00
(UTC+00:00)

Cosmos 1934 Rocket - Pass Details

Date: 17 April 2021
Orbit: 938 x 999 km, 83.0° (Epoch: 11 May)

Event Time Altitude Azimuth Distance (km) Brightness Sun altitude
Rises 21:15:57 0° 352° (N) 3,716 7.5 -21.3°
Reaches altitude 10° 21:18:30 10° 352° (N) 2,757 6.8 -21.0°
Maximum altitude 21:24:50 89° 84° (E) 984 4.0 -20.1°
Drops below altitude 10° 21:31:03 10° 174° (S) 2,698 6.0 -19.2°
Enters shadow 21:31:49 - 174° (S) 2,988 6.3 -19.1°
